Regional Weather Roundup
Issued by NWS Goodland, KS

Home | Current Version | Previous Version | Graphics & Text | Print | Product List | Glossary On
Versions: 1 2 3 4 5 6 7 8 9 10 11 12 13 14 15 16 17 18 19 20 21 22 23 24 25 26 27 28 29 30 31 32 33 34 35 36 37 38 39 40 41 42 43 44 45 46 47 48 49 50
000
ASUS43 KGLD 011259
RWRGLD

GOODLAND FORECAST AREA HOURLY WEATHER ROUNDUP
NATIONAL WEATHER SERVICE GOODLAND KS
700 AM MDT TUE SEP 01 2015

...OFFICIAL OBSERVATIONS...

CITY           SKY/WX    TMP DP  RH WIND       PRES   REMARKS
GOODLAND KS    PTCLDY    60  58  92 W7        30.01R
HILL CITY KS   CLOUDY    71  59  65 SE6       29.96R
IMPERIAL NEB   PTCLDY    63  58  83 CALM      29.99R
MCCOOK NEB     PTCLDY    66  62  87 W7        29.95R
AKRON CO       CLEAR     58  54  86 SW14      30.07R
BURLINGTON CO  PTCLDY    59  56  89 W7        30.05S
LIMON CO       PTCLDY    50  49  96 CALM      30.13R
$$

...UNOFFICIAL OBSERVATIONS...

CITY           SKY/WX    TMP DP  RH WIND       PRES   REMARKS
COLBY KS       CLEAR     63  63 100 W7        29.99R
GOVE KS          N/A     66  32  28 MISG        N/A
LENORA KS        N/A     69  32  25 MISG        N/A
NORTON KS      CLEAR     68  54  60 S6        29.93S
SHARON SPRINGS   N/A     65  60  83 CALM        N/A
KIT CARSON CO    N/A     58  55  90 MISG        N/A
YUMA CO          N/A     57  55  93 CALM        N/A
$$


USA.gov is the U.S. government's official web portal to all federal, state and local government web resources and services.